DateTimeUTC,F1_A11,F1_S11,BsB_S11,BsG_S11,BsR_S11,BbsB_S11,BbsG_S11,BbsR_S11,BaB_A11,BaG_A11,BaR_A11,Tu_S11,T_S11,Uu_S11,U_S11,P_S11,T1_A11
2021-03-17T14:00:00Z,00040200,21000000,,,,,,,0000.26,0000.01,0000.05,17.4,24.6,00.9,00.6,0652.4,30.9
2021-03-17T14:01:00Z,00040200,21000000,,,,,,,0000.24,0000.46,-000.21,17.4,24.6,00.9,00.6,0652.4,30.9
2021-03-17T14:02:00Z,00040200,21000000,,,,,,,-000.24,-000.24,0000.24,17.4,24.6,00.9,00.6,0652.4,31.0
2021-03-17T14:03:00Z,00040200,61000000,,,,,,,0000.43,0000.61,0000.15,17.4,24.6,00.9,00.6,0652.4,31.0
2021-03-17T14:04:00Z,00040200,41000000,0000.07,-000.33,0000.29,0000.09,-000.14,0000.02,0000.12,-000.22,-000.28,17.5,24.5,01.2,00.8,0653.3,31.0
2021-03-17T14:05:00Z,00040200,01000000,0000.09,-000.04,0000.13,0000.28,-000.08,0000.17,-000.20,-000.02,0000.34,17.6,24.4,01.3,00.8,0653.3,31.0
2021-03-17T14:06:00Z,00040200,01000000,0000.23,0000.15,-000.11,0000.50,-000.14,0000.23,0000.05,0000.33,-000.08,17.6,24.4,01.3,00.8,0653.4,31.0
2021-03-17T14:07:00Z,00040200,01000000,0000.24,-000.11,0000.08,0000.13,0000.23,0000.33,0000.51,0000.11,0000.40,17.6,24.4,01.4,00.9,0653.4,31.0
2021-03-17T14:08:00Z,00040200,01000000,0000.79,-000.22,0000.00,0000.24,-000.03,0000.22,0000.65,0000.51,0000.50,17.6,24.4,01.5,01.0,0653.4,31.0
2021-03-17T14:09:00Z,00040200,01000000,0000.56,-000.11,-000.08,0000.38,0000.05,0000.37,0000.05,0000.41,-000.04,17.6,24.4,01.6,01.0,0653.4,30.9
2021-03-17T14:10:00Z,00040200,01000000,0000.02,0000.18,0000.20,0000.33,-000.11,0000.18,0000.08,0000.07,0000.03,17.6,24.4,01.6,01.0,0653.4,30.9
2021-03-17T14:11:00Z,00040200,01000000,0000.40,-000.01,0000.42,0000.19,-000.18,0000.05,-000.33,-000.03,-000.04,17.6,24.4,01.5,01.0,0653.4,31.0
2021-03-17T14:12:00Z,00040200,01000000,0000.34,-000.07,-000.02,-000.06,-000.17,0000.20,0000.68,-000.16,-000.04,17.6,24.4,01.6,01.0,0653.3,31.0
2021-03-17T14:13:00Z,00040200,01000000,0000.83,-000.15,0000.22,-000.41,-000.13,0000.06,-000.29,-000.15,0000.06,17.6,24.4,01.5,01.0,0653.3,31.0
2021-03-17T14:14:00Z,00040200,01000000,-000.38,0000.10,0000.29,0000.17,-000.00,0000.25,0000.19,0000.05,0000.02,17.6,24.4,01.6,01.1,0653.4,31.0
2021-03-17T14:15:00Z,00040200,01000000,0000.06,-000.01,0000.02,0000.06,-000.06,0000.25,0000.02,0000.21,-000.00,17.6,24.4,01.5,01.0,0653.4,30.9
2021-03-17T14:16:00Z,00040200,01000000,0000.30,0000.01,0000.17,0000.06,-000.06,0000.12,-000.40,-000.12,0000.19,17.6,24.4,01.5,01.0,0653.4,30.9
2021-03-17T14:17:00Z,00040200,01000000,0000.58,-000.04,-000.11,0000.40,-000.11,0000.24,0000.18,0000.21,0000.06,17.6,24.4,01.4,00.9,0653.3,30.9
2021-03-17T14:18:00Z,00040200,01000000,0000.55,0000.11,0000.06,-000.15,-000.08,0000.05,0000.21,0000.15,0000.18,17.6,24.4,01.4,00.9,0653.4,30.9
2021-03-17T14:19:00Z,00040200,01000000,0000.45,0000.08,-000.01,-000.26,-000.11,0000.26,0000.27,-000.43,0000.07,17.6,24.4,01.5,01.0,0653.3,30.9
2021-03-17T14:20:00Z,00040200,01000000,0000.01,-000.11,-000.16,-000.08,0000.05,0000.04,-000.22,0000.14,-000.55,17.6,24.4,01.5,01.0,0653.4,30.9
2021-03-17T14:21:00Z,00040200,01000000,0000.02,0000.27,0000.11,-000.01,-000.19,0000.07,0000.23,0000.31,0000.27,17.6,24.4,01.5,01.0,0653.3,31.0
2021-03-17T14:22:00Z,00040200,01000000,0000.12,-000.07,0000.08,0000.52,0000.10,-000.12,-000.00,0000.04,0000.13,17.6,24.4,01.5,01.0,0653.3,31.0
2021-03-17T14:23:00Z,00040200,01000000,0000.50,0000.09,-000.03,0000.21,-000.11,0000.21,0000.08,0000.37,0000.36,17.6,24.4,01.5,01.0,0653.3,30.9
2021-03-17T14:24:00Z,00040200,01000000,0000.48,0000.01,0000.18,0000.01,-000.06,-000.01,0000.08,0000.30,-000.05,17.6,24.4,01.5,01.0,0653.3,30.9
2021-03-17T14:25:00Z,00040200,01000000,0000.00,-000.22,-000.04,0000.11,-000.07,0000.06,0000.20,0000.15,0000.13,17.6,24.4,01.6,01.0,0653.3,30.9
2021-03-17T14:26:00Z,00040200,01000000,0000.23,-000.02,0000.26,0000.25,-000.09,0000.35,0000.42,-000.15,0000.41,17.6,24.4,01.7,01.1,0653.3,30.9
2021-03-17T14:27:00Z,00040200,01000000,0000.01,-000.20,0000.29,-000.10,-000.05,0000.58,-000.02,0000.25,-000.22,17.6,24.4,01.7,01.1,0653.3,31.0
2021-03-17T14:28:00Z,00040200,01000000,-000.16,0000.27,0000.16,-000.26,-000.18,0000.40,0000.14,-000.11,-000.30,17.6,24.4,01.7,01.1,0653.3,30.9
2021-03-17T14:29:00Z,00040200,01000000,-000.18,0000.03,0000.14,-000.07,-000.09,0000.28,-000.48,-000.49,0000.05,17.6,24.4,01.6,01.0,0653.3,30.9
2021-03-17T14:30:00Z,00040200,01000000,0000.11,0000.16,0000.04,0000.27,-000.01,0000.20,0000.22,0000.52,0000.28,17.6,24.4,01.5,01.0,0653.4,30.9
2021-03-17T14:31:00Z,00040200,01000000,0000.42,0000.21,-000.17,0000.14,0000.07,-000.02,0000.06,-000.33,0000.02,17.6,24.3,01.7,01.1,0653.3,30.9
2021-03-17T14:32:00Z,00040200,01000000,0000.14,0000.23,-000.05,0000.12,0000.02,0000.36,-000.38,-000.01,-000.24,17.6,24.4,01.6,01.1,0653.3,30.9
2021-03-17T14:33:00Z,00040200,01000000,0000.32,-000.14,0000.01,0000.14,-000.05,0000.04,0000.35,0000.22,0000.15,17.6,24.3,01.6,01.0,0653.3,30.9
2021-03-17T14:34:00Z,00040200,01000000,-000.07,0000.20,-000.02,-000.01,-000.22,0000.32,0000.11,0000.24,0000.12,17.6,24.3,01.7,01.1,0653.3,30.9
2021-03-17T14:35:00Z,00040200,01000000,-000.27,0000.10,0000.15,-000.01,0000.01,0000.30,0000.62,0000.32,0000.31,17.5,24.3,01.8,01.2,0653.3,31.0
2021-03-17T14:36:00Z,00040200,01000000,0000.35,0000.09,0000.19,-000.00,-000.00,0000.12,0000.09,0000.03,0000.26,17.6,24.3,01.8,01.2,0653.3,30.9
2021-03-17T14:37:00Z,00040200,01000000,0000.05,0000.19,0000.09,-000.04,-000.13,0000.06,-000.00,0000.13,-000.40,17.5,24.3,01.8,01.2,0653.3,30.9
2021-03-17T14:38:00Z,00040200,01000000,0000.34,-000.29,0000.08,-000.06,-000.03,0000.20,-000.08,-000.13,0000.12,17.6,24.3,01.7,01.1,0653.3,30.9
2021-03-17T14:39:00Z,00040200,01000000,-000.14,0000.27,0000.16,0000.12,-000.26,0000.20,-000.24,0000.07,0000.05,17.6,24.3,01.8,01.2,0653.3,30.9
2021-03-17T14:40:00Z,00040200,01000000,0000.45,-000.18,0000.22,0000.28,-000.06,0000.10,0000.21,0000.02,-000.17,17.5,24.3,01.7,01.1,0653.4,30.9
2021-03-17T14:41:00Z,00040200,01000000,0000.12,0000.11,-000.04,0000.15,-000.21,0000.18,-000.05,-000.11,0000.12,17.6,24.3,01.8,01.2,0653.3,30.9
2021-03-17T14:42:00Z,00040200,01000000,-000.13,-000.50,0000.24,-000.24,-000.07,0000.27,-000.19,0000.19,-000.13,17.5,24.3,01.7,01.1,0653.3,30.9
2021-03-17T14:43:00Z,00040200,01000000,0000.31,-000.06,0000.11,0000.40,-000.10,0000.03,0000.32,0000.01,0000.23,17.5,24.3,01.7,01.1,0653.3,30.9
2021-03-17T14:44:00Z,00040200,01000000,-000.14,-000.16,0000.24,0000.34,-000.11,0000.10,0000.26,0000.04,-000.20,17.5,24.3,01.8,01.2,0653.3,30.9
2021-03-17T14:45:00Z,00040200,01000000,0000.26,-000.14,0000.14,0000.12,-000.11,0000.44,0000.26,0000.35,0000.43,17.5,24.3,01.9,01.2,0653.3,30.9
2021-03-17T14:46:00Z,00040200,00000000,0000.05,0000.04,0000.43,0000.30,-000.25,-000.05,-000.41,-000.22,0000.29,17.5,24.3,01.8,01.2,0653.2,30.9
2021-03-17T14:47:00Z,00040200,01000000,0000.77,-000.02,0000.20,0000.30,-000.18,0000.11,0000.18,-000.17,-000.18,17.5,24.3,01.8,01.2,0653.3,30.9
2021-03-17T14:48:00Z,00040200,01000000,-000.03,-000.21,0000.17,-000.22,-000.08,0000.45,0000.23,0000.20,-000.28,17.5,24.3,01.8,01.2,0653.3,30.9
2021-03-17T14:49:00Z,00040200,01000000,0000.28,0000.03,-000.21,0000.02,-000.11,0000.03,-000.07,-000.06,0000.19,17.5,24.3,01.8,01.2,0653.4,30.9
2021-03-17T14:50:00Z,00040200,01000000,-000.03,0000.11,0000.20,0000.78,0000.03,0000.23,-000.08,0000.06,-000.01,17.5,24.3,01.8,01.2,0653.4,30.9
2021-03-17T14:51:00Z,00040200,01000000,-000.40,0000.13,0000.11,-000.27,0000.08,0000.28,0000.27,-000.05,0000.20,17.5,24.3,01.7,01.1,0653.5,30.9
2021-03-17T14:52:00Z,00040200,01000000,-000.16,-000.22,-000.05,0000.44,-000.07,0000.28,0000.18,0000.31,-000.03,17.5,24.3,01.8,01.2,0653.4,30.9
2021-03-17T14:53:00Z,00040200,01000000,0000.03,0000.03,0000.14,0000.11,-000.23,0000.33,-000.36,-000.37,0000.15,17.5,24.2,01.9,01.3,0653.4,30.9
2021-03-17T14:54:00Z,00040200,01000000,0000.18,-000.23,0000.21,0000.02,-000.15,0000.14,0000.05,0000.07,0000.07,17.5,24.2,01.7,01.1,0653.5,30.9
2021-03-17T14:55:00Z,00040200,01000000,-000.23,-000.07,0000.25,0000.25,0000.08,0000.37,0000.09,-000.01,-000.23,17.5,24.2,01.8,01.2,0653.5,30.9
2021-03-17T14:56:00Z,00040200,01000000,-000.04,0000.11,-000.18,0000.26,-000.21,0000.19,0000.01,0000.20,-000.15,17.5,24.2,01.8,01.2,0653.4,30.9
2021-03-17T14:57:00Z,00040200,40000000,,,,,,,-000.48,-000.12,0000.12,17.5,24.2,02.3,01.5,0653.4,30.9
2021-03-17T14:58:00Z,00040200,60000000,,,,,,,0000.02,0000.07,-000.05,17.3,24.3,01.6,01.0,0652.4,30.9
2021-03-17T14:59:00Z,00040200,20000000,,,,,,,0000.06,-000.01,0000.03,17.3,24.4,01.6,01.0,0652.4,30.9
